Date,TemperatureHighF,TemperatureAvgF,TemperatureLowF,DewpointHighF,DewpointAvgF,DewpointLowF,HumidityHigh,HumidityAvg,HumidityLow,PressureMaxIn,PressureMinIn,WindSpeedMaxMPH,WindSpeedAvgMPH,GustSpeedMaxMPH,PrecipitationSumIn
2013-3-1,34,25,17,18,16,12,81,67,47,30.10,29.98,11,4,11,0.00
2013-3-2,36,21,6,13,8,3,96,64,26,30.09,29.93,4,2,4,0.00
2013-3-3,37,30,16,11,6,2,73,37,23,29.91,29.74,11,4,11,0.00
2013-3-4,27,25,23,24,17,5,99,76,39,29.79,29.70,14,4,14,0.00
2013-3-5,32,26,20,29,24,19,99,93,74,30.05,29.73,12,4,12,0.00
2013-3-6,35,23,16,20,18,13,96,80,53,30.17,30.05,8,3,8,0.00
2013-3-7,35,21,6,18,14,5,97,75,48,30.12,30.03,8,2,8,0.00
2013-3-8,42,34,20,30,28,18,95,79,56,30.06,29.84,9,4,9,0.00
2013-3-9,37,35,33,37,34,29,99,97,77,29.85,29.46,10,3,10,0.00
2013-3-10,35,33,29,34,30,25,99,91,83,29.72,29.54,17,7,17,0.00
2013-3-11,31,28,23,26,23,19,89,82,68,29.63,29.51,14,6,14,0.00
2013-3-12,30,25,20,19,15,8,89,67,43,29.94,29.58,21,6,21,0.00
2013-3-13,39,24,12,18,13,7,94,65,27,30.12,29.94,11,4,11,0.00
2013-3-14,47,32,23,29,25,18,99,75,46,30.00,29.78,11,3,11,0.00
2013-3-15,34,31,23,33,29,23,99,93,81,29.78,29.61,11,2,11,0.00
2013-3-16,32,21,12,23,13,2,99,72,46,29.98,29.67,12,2,12,0.00
2013-3-17,31,18,3,18,5,-2,79,58,37,30.01,29.64,14,4,14,0.00
2013-3-18,29,22,12,28,18,6,99,83,64,29.64,29.35,16,7,16,0.00
2013-3-19,27,14,6,8,3,-4,80,61,38,29.93,29.55,21,7,21,0.00
2013-3-20,24,14,5,4,0,-4,69,55,39,29.94,29.84,19,7,19,0.00
2013-3-21,33,17,1,10,4,-3,83,59,33,29.87,29.79,9,2,9,0.00
2013-3-22,41,24,7,16,10,4,89,58,26,29.86,29.79,8,2,8,0.00
2013-3-23,44,30,16,20,15,11,87,58,27,29.90,29.83,7,2,7,0.00
2013-3-24,35,31,28,27,23,20,91,73,59,29.85,29.74,14,5,14,0.00
2013-3-25,42,31,21,22,18,15,79,60,34,29.97,29.80,15,5,15,0.00
2013-3-26,43,33,26,24,21,16,80,63,39,30.06,29.97,9,3,9,0.00
2013-3-27,49,35,22,22,18,9,81,53,21,30.10,30.05,10,2,10,0.00
2013-3-28,49,35,20,24,20,13,96,59,25,30.11,30.05,11,2,11,0.00
2013-3-29,53,40,27,38,30,22,86,68,43,30.05,29.85,14,3,14,0.00
2013-3-30,56,44,35,45,39,33,99,83,57,29.84,29.63,11,4,11,0.00
2013-3-31,41,34,24,34,23,6,99,68,27,29.85,29.56,22,7,22,0.00